Location: Sternwarte ZA, Rosenfeld-Brittheim
(48.2889°N, 8.6789°E)
Time: 02:41:43
(UTC+01:00)

ISS - Pass Details

Date: 22 September 2018
Orbit: 402 x 408 km, 51.6° (Epoch: 18 November)

Event Time Altitude Azimuth Distance (km) Brightness Sun altitude
Rises 20:12:04 0° 194° (SSW) 2,333 0.1 -8.9°
Reaches altitude 10° 20:14:58 10° 166° (SSE) 1,476 -1.2 -9.3°
Maximum altitude 20:16:38 13° 135° (SE) 1,293 -1.8 -9.6°
Enters shadow 20:17:17 13° 123° (ESE) 1,323 -1.8 -9.7°
